Vorticity
1 0 2 1 6 5 7 4 2 5 8 3 2 3 11 14 7 9 -2 13 10 8 8 8 9 4 3 11 7 9 0 9 5 9 7 8 10 9 9 9 8 7 7
3 1 -4 -7 -1 -0 2 4 5 7 4 2 3 8 14 7 5 0 18 11 5 9 8 5 4 7 10 3 8 5 2 5 8 9 9 10 8 7 8 9 7 10 9
12 0 0 -3 1 -1 -1 -0 3 5 3 3 7 18 12 6 4 11 5 9 6 -1 15 3 2 10 6 9 7 4 6 8 9 10 8 11 7 7 8 9 11 13 14
13 1 -2 9 4 8 5 3 4 4 3 8 21 8 5 3 9 10 10 7 11 3 15 7 10 16 7 4 10 8 8 10 9 9 7 7 7 6 6 6 10 13 13
-3 1 7 9 0 10 12 6 0 2 11 19 3 7 3 10 8 6 4 4 1 9 0 9 -1 5 4 8 9 9 9 8 8 8 8 8 8 8 7 8 10 13 13
8 2 3 -1 1 13 17 7 9 20 18 3 2 5 9 9 5 5 6 -0 15 10 -15 14 -0 6 8 10 9 6 7 8 9 8 8 9 9 11 11 12 12 14 12
2 6 4 3 11 -5 6 23 17 11 1 -0 7 8 6 6 6 1 3 -19 48 -16 -4 19 -10 12 7 8 5 6 8 9 8 8 8 10 10 10 9 10 11 12 8
10 7 8 -4 -3 6 22 16 8 3 1 7 6 5 5 4 5 5 19 -7 -21 34 -15 11 15 10 8 4 6 8 9 6 8 9 9 10 10 10 11 14 16 16 10
8 8 12 13 8 22 12 14 4 3 3 5 4 2 4 6 16 -7 -5 -20 17 16 -2 18 13 9 5 7 9 10 8 9 10 10 11 10 11 11 11 11 14 7 14
11 5 17 13 16 14 10 10 7 5 2 4 4 7 6 0 -4 38 13 -10 29 5 10 13 7 6 5 6 9 9 8 10 10 10 11 12 12 13 12 10 10 13 10
24 18 17 12 11 10 3 8 13 21 14 16 15 7 5 -33 -12 -2 0 21 -5 28 13 6 7 10 6 15 9 8 10 13 13 12 11 12 15 15 12 14 13 17 4
7 3 4 7 11 10 6 4 3 2 7 3 17 -21 -18 22 -16 -28 29 -17 12 -1 12 15 13 -4 22 7 6 8 11 10 11 11 12 12 14 12 14 17 21 16 12
1 -1 1 5 2 17 8 1 8 3 2 -1 12 16 11 8 4 21 -7 11 22 10 14 -2 20 26 5 5 10 13 12 12 13 11 10 13 13 13 15 18 10 14 12
4 7 7 6 3 2 6 7 -1 4 4 9 1 7 16 2 13 -1 11 12 4 4 25 23 7 4 5 11 13 11 9 11 11 10 13 15 6 -1 7 14 15 12 8
12 10 7 7 9 5 12 10 6 11 6 7 14 9 8 14 8 10 7 -2 34 30 11 7 4 9 10 11 11 11 10 10 11 10 13 20 6 -1 4 16 15 8 8
7 10 12 16 6 9 -5 5 4 3 17 11 10 6 7 3 8 10 17 14 30 10 3 5 9 8 10 10 12 10 10 10 11 11 14 18 10 3 20 18 10 8 9
12 11 10 8 6 7 8 1 7 6 8 7 7 4 5 7 7 20 22 10 11 4 4 7 9 9 9 11 12 10 10 12 11 12 13 11 14 19 16 11 9 8 7
17 10 6 6 6 8 10 6 11 9 6 3 8 8 5 13 20 21 21 9 4 6 6 8 9 9 10 11 9 9 13 13 10 13 11 12 14 11 13 10 8 8 8
14 11 8 8 10 0 15 10 8 10 9 7 7 6 33 19 28 18 9 4 5 5 6 7 9 11 13 12 11 11 16 13 12 12 11 12 12 12 12 10 8 8 8
10 10 10 -10 10 12 10 6 8 7 4 5 11 15 14 26 14 7 5 5 5 5 7 9 10 13 14 12 10 11 14 13 12 12 12 11 12 14 13 10 8 8 8
9 1 4 8 17 12 9 8 9 8 5 24 6 27 13 16 6 6 5 5 5 7 7 7 10 12 11 10 9 12 13 13 12 12 13 11 12 15 12 10 8 8 9
9 12 13 15 9 8 6 6 8 17 2 20 22 20 13 6 4 5 5 6 7 7 7 7 10 14 12 11 12 13 12 11 11 12 11 11 11 14 11 11 10 8 7
14 13 11 11 7 5 11 13 1 16 27 22 13 5 4 6 5 5 5 6 7 7 8 9 11 14 15 15 13 12 12 11 11 12 10 10 12 11 10 10 10 7 7
7 8 6 3 11 15 -1 29 19 16 13 6 5 6 6 5 5 5 5 5 8 7 9 13 12 15 14 13 11 10 11 13 12 12 10 11 12 14 11 10 12 9 8
5 6 3 7 8 21 13 12 9 7 7 8 6 5 4 5 5 5 7 6 9 12 14 17 12 14 15 15 16 16 13 12 13 12 13 11 13 15 14 11 13 11 9
7 10 10 19 15 13 14 13 12 8 7 5 5 4 4 5 5 5 5 9 11 13 20 11 15 9 8 10 13 15 15 16 14 12 13 14 11 10 11 13 15 12 9
Height
3141 3144 3147 3150 3152 3155 3156 3158 3159 3159 3160 3161 3161 3160 3161 3161 3160 3159 3159 3157 3157 3156 3155 3153 3152 3149 3147 3144 3142 3140 3137 3134 3130 3126 3122 3118 3115 3112 3108 3104 3100 3097 3093
3141 3141 3145 3147 3149 3151 3153 3155 3158 3158 3157 3157 3157 3157 3157 3157 3157 3157 3155 3154 3153 3151 3150 3149 3148 3146 3142 3140 3136 3134 3130 3127 3122 3118 3112 3108 3109 3104 3101 3097 3093 3090 3085
3135 3137 3139 3143 3146 3148 3149 3151 3153 3153 3153 3153 3153 3153 3154 3155 3154 3152 3151 3150 3150 3148 3146 3145 3143 3141 3138 3134 3130 3126 3121 3118 3115 3110 3105 3098 3095 3092 3092 3088 3083 3080 3076
3137 3136 3138 3141 3142 3143 3146 3147 3147 3148 3149 3149 3150 3150 3151 3150 3150 3149 3147 3146 3145 3144 3142 3140 3137 3134 3131 3128 3123 3118 3114 3109 3105 3100 3095 3090 3085 3078 3071 3068 3066 3066 3064
3135 3136 3139 3141 3141 3141 3142 3144 3144 3145 3146 3146 3148 3147 3147 3147 3145 3144 3143 3142 3139 3137 3135 3132 3129 3126 3122 3119 3115 3110 3105 3099 3094 3090 3085 3081 3076 3072 3066 3058 3055 3053 3050
3132 3135 3138 3140 3139 3139 3139 3140 3140 3141 3143 3143 3143 3142 3141 3142 3140 3138 3137 3135 3131 3130 3128 3124 3121 3117 3114 3110 3104 3099 3095 3089 3084 3080 3076 3071 3066 3060 3055 3050 3046 3042 3041
3129 3131 3133 3136 3135 3137 3136 3136 3136 3137 3139 3139 3138 3137 3136 3134 3133 3132 3130 3127 3124 3122 3119 3113 3111 3107 3103 3098 3094 3090 3086 3080 3075 3070 3065 3060 3055 3050 3045 3040 3035 3030 3029
3126 3128 3129 3133 3131 3131 3130 3132 3133 3134 3135 3134 3133 3132 3130 3129 3128 3127 3123 3122 3118 3114 3113 3109 3105 3100 3097 3092 3088 3084 3078 3072 3067 3062 3056 3051 3046 3040 3035 3031 3026 3022 3021
3124 3126 3126 3127 3128 3127 3127 3129 3130 3130 3130 3130 3130 3129 3127 3125 3123 3122 3120 3115 3112 3110 3107 3103 3098 3094 3089 3085 3080 3075 3069 3063 3057 3052 3046 3042 3037 3031 3027 3022 3018 3015 3012
3121 3122 3123 3124 3125 3123 3123 3123 3124 3125 3127 3128 3127 3126 3123 3122 3117 3115 3113 3111 3108 3104 3099 3094 3090 3085 3081 3076 3071 3064 3058 3053 3047 3041 3036 3031 3027 3022 3018 3013 3010 3006 3004
3116 3117 3118 3119 3120 3119 3118 3119 3120 3122 3122 3123 3123 3122 3120 3115 3106 3108 3106 3104 3100 3095 3090 3085 3080 3075 3071 3067 3061 3055 3049 3044 3038 3032 3027 3022 3017 3013 3008 3006 3003 3000 2997
3113 3114 3115 3114 3115 3115 3115 3116 3115 3115 3114 3113 3112 3111 3108 3103 3100 3100 3098 3092 3089 3085 3079 3073 3069 3065 3060 3056 3051 3045 3040 3034 3029 3023 3018 3013 3009 3005 3001 2998 2995 2992 2989
3107 3107 3107 3107 3108 3109 3110 3110 3111 3110 3108 3106 3105 3102 3100 3100 3096 3092 3088 3082 3078 3073 3067 3063 3061 3057 3053 3048 3043 3036 3030 3024 3020 3015 3010 3005 3001 2998 2994 2991 2988 2985 2981
3103 3102 3103 3103 3103 3103 3103 3103 3103 3102 3101 3100 3099 3097 3095 3092 3088 3084 3079 3074 3068 3063 3061 3058 3054 3049 3045 3040 3034 3028 3022 3016 3011 3007 3002 2997 2994 2991 2987 2983 2980 2977 2974
3100 3100 3099 3098 3099 3099 3099 3099 3099 3098 3096 3095 3092 3089 3086 3084 3080 3076 3070 3066 3062 3058 3054 3050 3045 3040 3035 3030 3025 3019 3013 3008 3003 2998 2993 2989 2985 2983 2979 2976 2973 2971 2967
3096 3095 3095 3096 3096 3097 3096 3096 3095 3092 3091 3089 3085 3082 3078 3074 3071 3066 3063 3058 3053 3049 3046 3042 3037 3032 3026 3021 3016 3010 3005 3000 2995 2990 2986 2982 2978 2975 2972 2969 2967 2964 2961
3091 3091 3093 3094 3094 3093 3092 3090 3088 3086 3083 3080 3077 3074 3070 3066 3061 3057 3053 3049 3045 3042 3038 3033 3029 3023 3018 3013 3007 3001 2996 2991 2986 2982 2978 2974 2971 2968 2965 2963 2961 2958 2954
3087 3087 3088 3088 3088 3087 3086 3084 3081 3079 3077 3074 3072 3068 3062 3056 3053 3049 3046 3042 3038 3034 3030 3026 3020 3015 3010 3004 2998 2993 2988 2983 2979 2975 2971 2967 2964 2961 2959 2957 2954 2952 2948
3083 3083 3083 3083 3082 3081 3079 3077 3075 3073 3070 3066 3061 3055 3051 3048 3044 3040 3037 3033 3030 3026 3022 3017 3013 3008 3002 2996 2990 2985 2980 2975 2971 2967 2963 2960 2957 2954 2952 2950 2948 2946 2943
3080 3079 3079 3078 3076 3074 3072 3070 3067 3064 3060 3055 3050 3047 3043 3040 3036 3033 3029 3025 3022 3018 3013 3008 3003 2997 2992 2986 2981 2976 2971 2968 2964 2960 2956 2953 2950 2947 2945 2943 2942 2940 2937
3074 3074 3074 3072 3070 3068 3065 3062 3059 3055 3050 3047 3043 3039 3036 3032 3029 3026 3022 3018 3013 3009 3004 2998 2992 2987 2981 2976 2971 2967 2962 2959 2955 2952 2949 2945 2943 2941 2938 2936 2935 2933 2931
3068 3067 3065 3064 3062 3060 3058 3055 3050 3046 3043 3040 3036 3032 3029 3026 3022 3018 3014 3010 3005 3000 2994 2988 2983 2976 2971 2966 2962 2958 2954 2950 2947 2945 2941 2938 2935 2934 2931 2930 2929 2927 2924
3060 3059 3058 3057 3055 3053 3050 3047 3043 3039 3036 3032 3029 3026 3022 3018 3014 3010 3006 3001 2995 2989 2984 2978 2972 2967 2962 2957 2953 2949 2945 2942 2938 2936 2933 2931 2928 2926 2924 2922 2921 2919 2918
3053 3052 3051 3049 3047 3044 3041 3037 3033 3030 3028 3025 3022 3019 3015 3011 3006 3001 2995 2989 2984 2978 2972 2966 2961 2956 2952 2948 2942 2938 2935 2932 2929 2927 2925 2923 2921 2919 2917 2915 2914 2913 2911
3047 3045 3043 3041 3038 3035 3031 3029 3026 3023 3021 3019 3016 3012 3007 3002 2996 2991 2985 2978 2973 2967 2960 2955 2950 2945 2943 2939 2933 2929 2925 2923 2920 2917 2916 2915 2913 2912 2910 2908 2907 2906 2905
3039 3037 3035 3032 3030 3028 3025 3022 3020 3017 3014 3011 3007 3002 2996 2991 2985 2978 2972 2967 2960 2955 2950 2945 2940 2936 2932 2929 2924 2919 2916 2914 2911 2908 2907 2906 2904 2903 2902 2900 2900 2898 2898